Weather History for Sierra Vista, AZ

Change the Weather History Date:

Sunday, September 8, 2013

  Actual Average Record
Temperature  
Mean Temperature 70 °F -  
Max Temperature 78 °F 86 °F 95 °F (1997)
Min Temperature 63 °F 67 °F 54 °F (1984)
Cooling Degree Days 6    
Growing Degree Days 20 (Base 50)    
Moisture  
Dew Point 63 °F    
Average Humidity 84    
Maximum Humidity 94    
Minimum Humidity 58    
Precipitation  
Precipitation 0.60 in - - ()
Sea Level Pressure  
Sea Level Pressure 29.93 in    
Wind  
Wind Speed 4 mph (NNE)    
Max Wind Speed 12 mph    
Max Gust Speed -    
Visibility 8 miles    
Events Rain , Thunderstorm    
Averages and records for this station are not official NWS values.
T = Trace of Precipitation, MM = Missing Value Source: NWS Daily Summary

Daily Weather History Graph

Daily Weather History Graph

Search for Another Location

Airport:

Trip Planner

Search our weather history database for the weather conditions in past years. The results will help you decide how hot, cold, wet, or windy it might be!

Date:

Astronomy

Sep. 08, 2013 Rise Set
Actual Time 6:01 AM MST 6:35 PM MST
Civil Twilight 5:36 AM MST 7:00 PM MST
Nautical Twilight 5:08 AM MST 7:29 PM MST
Astronomical Twilight 4:38 AM MST 7:58 PM MST
Moon 9:06 AM MST (9/8) 8:30 PM MST (9/8)
Length of Visible Light 13h 23m
Length of Day
12h 34m
Waxing Crescent, 12% of the Moon is Illuminated
Sep 8
Waxing Crescent
Sep 12
First Quarter
Sep 19
Full
Sep 26
Last Quarter
Oct 4
New

Hourly Weather History & Observations

Time (MST) Temp. Dew Point Humidity Pressure Visibility Wind Dir Wind Speed Gust Speed Precip Events Conditions
12:56 AM 66.0 °F 61.0 °F 84% 29.96 in 10.0 mi Calm Calm - 0.03 in Rain Light Rain
1:56 AM 66.0 °F 62.1 °F 87% 29.95 in 10.0 mi South 3.5 mph - 0.01 in   Overcast
2:56 AM 66.0 °F 61.0 °F 84% 29.93 in 10.0 mi Calm Calm - 0.00 in   Mostly Cloudy
3:56 AM 64.9 °F 61.0 °F 87% 29.92 in 10.0 mi NNW 3.5 mph - N/A   Partly Cloudy
4:56 AM 66.0 °F 62.1 °F 87% 29.93 in 10.0 mi Calm Calm - N/A   Overcast
5:56 AM 64.9 °F 63.0 °F 93% 29.94 in 8.0 mi SE 4.6 mph - 0.02 in Rain Light Rain
6:56 AM 64.9 °F 63.0 °F 93% 29.95 in 7.0 mi SSE 4.6 mph - 0.05 in Rain Light Rain
7:56 AM 66.0 °F 63.0 °F 90% 29.95 in 10.0 mi East 8.1 mph - 0.00 in   Overcast
8:56 AM 66.0 °F 64.0 °F 93% 29.94 in 10.0 mi Calm Calm - 0.01 in   Overcast
9:56 AM 69.1 °F 62.1 °F 78% 29.94 in 10.0 mi East 6.9 mph - N/A   Overcast
10:56 AM 71.1 °F 62.1 °F 73% 29.93 in 10.0 mi SE 5.8 mph - 0.00 in   Overcast
11:56 AM 75.0 °F 60.1 °F 60% 29.90 in 10.0 mi NE 5.8 mph - N/A   Partly Cloudy
12:56 PM 75.9 °F 61.0 °F 60% 29.88 in 10.0 mi East 3.5 mph - N/A   Mostly Cloudy
1:56 PM 78.1 °F 62.1 °F 58% 29.83 in 10.0 mi Variable 4.6 mph - 0.00 in   Scattered Clouds
2:56 PM 77.0 °F 61.0 °F 58% 29.82 in 10.0 mi Calm Calm - 0.00 in   Mostly Cloudy
3:43 PM 71.6 °F 64.4 °F 78% 29.99 in 2.0 mi ESE 9.2 mph - 0.07 in Rain Heavy Rain
3:45 PM 71.6 °F 64.4 °F 78% 29.99 in 1.5 mi SE 9.2 mph - 0.11 in Rain Heavy Rain
3:47 PM 69.8 °F 64.4 °F 83% 29.99 in 1.0 mi SE 8.1 mph - 0.16 in Rain Heavy Rain
3:56 PM 69.1 °F 64.0 °F 84% 29.83 in 1.2 mi NNW 4.6 mph - 0.25 in Rain Light Rain
3:58 PM 69.8 °F 64.4 °F 83% 29.98 in 1.8 mi NW 4.6 mph - 0.00 in Rain Light Rain
4:00 PM 69.8 °F 64.4 °F 83% 29.98 in 3.0 mi WNW 3.5 mph - 0.00 in Rain Light Rain
4:11 PM 71.6 °F 64.4 °F 78% 29.98 in 10.0 mi Calm Calm - 0.00 in Thunderstorm Overcast
4:56 PM 69.1 °F 64.0 °F 84% 29.84 in 10.0 mi NNW 9.2 mph - 0.00 in Thunderstorm Thunderstorm
5:41 PM 66.2 °F 64.4 °F 94% 30.01 in 2.0 mi North 3.5 mph - 0.05 in Rain , Thunderstorm Thunderstorms and Rain
5:51 PM 66.2 °F 64.4 °F 94% 30.01 in 2.5 mi North 6.9 mph - 0.07 in Rain , Thunderstorm Thunderstorms and Rain
5:56 PM 66.0 °F 64.0 °F 93% 29.86 in 5.0 mi NNE 5.8 mph - 0.07 in Rain , Thunderstorm Light Thunderstorms and Rain
6:05 PM 66.2 °F 64.4 °F 94% 30.00 in 10.0 mi North 8.1 mph - 0.00 in Rain Light Rain
6:56 PM 64.9 °F 63.0 °F 93% 29.88 in 10.0 mi North 4.6 mph - 0.02 in Rain Light Rain
7:06 PM 64.4 °F 62.6 °F 94% 30.03 in 10.0 mi West 4.6 mph - 0.00 in Thunderstorm Thunderstorm
7:38 PM 66.2 °F 62.6 °F 88% 30.03 in 4.0 mi WNW 9.2 mph - 0.03 in Rain Rain
7:56 PM 64.0 °F 61.0 °F 90% 29.89 in 9.0 mi WNW 11.5 mph - 0.05 in Rain Light Rain
8:56 PM 63.0 °F 60.1 °F 90% 29.89 in 10.0 mi WNW 8.1 mph - 0.04 in Rain Light Rain
9:56 PM 64.0 °F 62.1 °F 93% 29.87 in 10.0 mi SE 6.9 mph - 0.05 in Rain Light Rain
10:55 PM 64.4 °F 62.6 °F 94% 29.87 in 10.0 mi SSE 5.8 mph - N/A Rain Light Rain Showers
11:55 PM 66.2 °F 62.6 °F 88% 29.85 in 10.0 mi West 4.6 mph - N/A Rain Light Rain Showers